[[{"header":{"parameterUnit":"m.s-1","parameterCategory":1,"la1":30.2991,"la2":30.254,"lo1":-89.0895,"lo2":-89.0444,"dy":0.0017,"dx":0.0017,"nx":28,"ny":28,"refTime":"2024-04-14T21:00:00:Z","depth":0,"parameterNumber":2,"parameterNumberName":"U-component_of_WINDS"},"data":[0,0,0,0,0,0,0,0,0,0,0,0,0,0,0,0,0,0,0,0,0,0,0,0,0,0,0,0,0,0,0,0,0,0,0,0,0,0,0,0,0,0,0,0,0,0,0,0,0,0,0,0,0,0,0,0,0,0,-1.1297,-1.1296,0,-1.1235,-1.1234,-1.1233,-1.1174,-1.1174,-1.1173,-1.1172,-1.1108,-1.1107,-1.1106,0,0,0,0,0,0,0,0,0,0,0,0,0,-1.1366,-1.1365,-1.1297,-1.1296,-1.1296,-1.1235,-1.1234,-1.1233,-1.1175,-1.1174,-1.1173,-1.1172,-1.1108,-1.1107,-1.1106,0,0,0,0,0,0,0,0,0,0,0,0,0,-1.1323,-1.1365,-1.1297,-1.1259,-1.1255,-1.1235,-1.1234,-1.1233,-1.1175,-1.1174,-1.1173,-1.1172,-1.1109,-1.1107,-1.1106,-1.1118,0,0,-1.1101,-1.11,0,0,0,0,0,0,0,0,-1.1325,-1.1321,-1.1265,-1.1262,-1.1257,-1.1211,-1.1234,-1.1194,-1.1175,-1.1205,-1.1172,-1.1171,-1.1143,-1.1139,-1.113,-1.1115,-1.1113,-1.1101,-1.11,-1.1099,-1.1099,0,0,0,0,0,0,0,-1.1329,-1.1323,-1.1272,-1.1265,-1.126,-1.1245,-1.1238,-1.1227,-1.1181,-1.1203,-1.1198,-1.1192,-1.1141,-1.1131,-1.1128,-1.1112,-1.1101,-1.11,-1.1099,-1.1098,-1.1104,-1.1105,0,0,0,0,0,0,-1.1337,-1.1326,-1.1274,-1.127,-1.1289,-1.1245,-1.1237,-1.1227,-1.1181,-1.1173,-1.1193,-1.1189,-1.1134,-1.1129,-1.1125,-1.1136,-1.1099,-1.1098,-1.1097,-1.1103,-1.1105,-1.1106,0,0,0,0,0,0,-1.1339,-1.1333,-1.1277,-1.1297,-1.1289,-1.1245,-1.1235,-1.1226,-1.1217,-1.1174,-1.1165,-1.1191,-1.1133,-1.1127,-1.112,-1.1133,-1.1097,-1.1096,-1.1102,-1.1104,-1.1105,-1.1159,0,0,0,0,0,0,-1.1341,-1.1334,-1.1339,-1.1297,-1.1288,-1.1273,-1.1235,-1.1226,-1.1214,-1.1209,-1.117,-1.1162,-1.1132,-1.1123,-1.1119,-1.1131,-1.1095,-1.1101,-1.1103,-1.1105,-1.1156,-1.1163,-1.1168,0,0,0,0,0,-1.1344,-1.1356,-1.1339,-1.1333,-1.1292,-1.1274,-1.1269,-1.1233,-1.1216,-1.1219,-1.1192,-1.1164,-1.1133,-1.1123,-1.1118,-1.1129,-1.11,-1.1102,-1.1104,-1.1154,-1.1161,-1.1168,0,0,0,0,0,0,-1.14,-1.135,-1.1331,-1.133,-1.1307,-1.1264,-1.1268,-1.1243,-1.1224,-1.122,-1.1177,-1.1169,-1.1167,-1.1147,-1.1137,-1.1139,-1.1112,-1.1114,-1.1151,-1.1158,-1.1164,-1.1169,-1.1093,0,0,0,0,0,-1.1412,-1.1402,-1.1359,-1.1363,-1.1352,-1.1313,-1.1303,-1.1278,-1.1252,-1.1242,-1.1214,-1.119,-1.1175,-1.1166,-1.1149,-1.1153,-1.1144,-1.1159,-1.1165,-1.117,-1.1171,-1.1172,-1.1178,-1.1114,-1.1114,-1.1114,0,0,-1.1438,-1.1409,-1.1405,-1.1373,-1.1352,-1.1342,-1.1305,-1.1296,-1.1288,-1.1241,-1.1232,-1.1211,-1.1182,-1.118,-1.1178,-1.1164,-1.1187,-1.1173,-1.1177,-1.1176,-1.1175,-1.1181,-1.1187,-1.1115,-1.1115,-1.1115,0,0,-1.1479,-1.1456,-1.1457,-1.1437,-1.1405,-1.1379,-1.1379,-1.1341,-1.1325,-1.1316,-1.128,-1.127,-1.1245,-1.1225,-1.1212,-1.1246,-1.1219,-1.1242,-1.1273,-1.1274,-1.1279,-1.1283,-1.1295,-1.13,-1.1244,-1.1244,-1.1244,0,-1.1514,-1.1497,-1.146,-1.1453,-1.144,-1.1398,-1.1398,-1.138,-1.1345,-1.1337,-1.1322,-1.1289,-1.1266,-1.126,-1.1268,-1.1259,-1.1257,-1.1246,-1.1281,-1.1285,-1.1289,-1.1299,-1.1304,-1.1247,-1.1247,-1.1246,-1.1246,0,-1.1542,-1.1532,-1.1536,-1.1503,-1.1491,-1.1488,-1.145,-1.1441,-1.1418,-1.1393,-1.1384,-1.1356,-1.1333,-1.1329,-1.1306,-1.1319,-1.1311,-1.1289,-1.1262,-1.1298,-1.1308,-1.1311,-1.1251,-1.125,-1.1249,-1.1249,0,0,-1.1616,-1.1563,-1.1565,-1.155,-1.1513,-1.1504,-1.1499,-1.1476,-1.147,-1.1448,-1.1442,-1.1422,-1.1401,-1.1387,-1.1361,-1.1362,-1.139,-1.1339,-1.1338,-1.1349,-1.1403,-1.1419,-1.1424,-1.1373,-1.1373,-1.1374,-1.1405,0,-1.165,-1.1638,-1.1605,-1.1603,-1.1593,-1.1552,-1.1548,-1.1525,-1.1502,-1.1489,-1.1464,-1.145,-1.1424,-1.1415,-1.1414,-1.1387,-1.14,-1.1384,-1.1367,-1.1366,-1.1375,-1.1429,-1.1446,-1.1477,-1.1408,-1.1409,-1.1409,0,-1.1688,-1.1669,-1.1666,-1.1629,-1.1624,-1.162,-1.1597,-1.1586,-1.1559,-1.1542,-1.1526,-1.1497,-1.1489,-1.1465,-1.1453,-1.1443,-1.1434,-1.142,-1.142,-1.1417,-1.139,-1.1427,-1.1486,-1.1491,-1.1415,-1.1414,-1.1414,0,-1.1742,-1.1715,-1.171,-1.1698,-1.1655,-1.1654,-1.1636,-1.1607,-1.1596,-1.1576,-1.1568,-1.1547,-1.1536,-1.1521,-1.1487,-1.1472,-1.148,-1.1452,-1.1465,-1.1466,-1.1468,-1.1468,-1.1526,-1.1463,-1.1463,-1.1463,-1.1463,0,-1.1783,-1.1783,-1.1733,-1.173,-1.1729,-1.169,-1.169,-1.1668,-1.1644,-1.1635,-1.16,-1.1593,-1.1549,-1.1537,-1.1511,-1.1506,-1.1501,-1.1487,-1.148,-1.149,-1.1492,-1.1483,-1.1479,-1.1464,-1.1464,-1.1464,-1.1464,0,-1.1843,-1.1809,-1.1801,-1.1761,-1.1751,-1.1752,-1.1717,-1.1713,-1.1688,-1.1678,-1.1674,-1.1634,-1.1618,-1.1584,-1.1559,-1.1541,-1.1542,-1.153,-1.1551,-1.1547,-1.1561,-1.156,-1.1615,-1.1621,-1.1555,-1.1556,-1.1557,0,-1.1871,-1.187,-1.183,-1.1822,-1.1805,-1.1793,-1.1781,-1.1743,-1.1733,-1.1702,-1.1701,-1.1683,-1.1665,-1.1642,-1.1611,-1.1592,-1.1579,-1.1599,-1.1575,-1.1585,-1.1578,-1.1578,-1.1578,-1.1604,-1.1605,-1.1606,-1.1607,0,-1.1924,-1.1908,-1.1892,-1.1871,-1.1858,-1.184,-1.1819,-1.1815,-1.1772,-1.1762,-1.1746,-1.1733,-1.1707,-1.1689,-1.1665,-1.1646,-1.1619,-1.1615,-1.1616,-1.1626,-1.1638,-1.1631,-1.1565,-1.1613,-1.1613,-1.1612,-1.1612,-1.1611,-1.1968,-1.1966,-1.1937,-1.1921,-1.1902,-1.1884,-1.1877,-1.1852,-1.1837,-1.1813,-1.1792,-1.1777,-1.175,-1.1715,-1.1699,-1.1686,-1.1673,-1.1676,-1.1676,-1.1678,-1.1682,-1.1641,-1.1682,-1.1682,-1.1682,-1.1681,-1.1681,0,-1.202,-1.1999,-1.1985,-1.1958,-1.1945,-1.1921,-1.1897,-1.1888,-1.1876,-1.1853,-1.1837,-1.1818,-1.1801,-1.1769,-1.1748,-1.1745,-1.1732,-1.1741,-1.174,-1.1736,-1.1695,-1.1695,-1.1751,-1.1751,-1.1751,-1.1751,-1.1751,-1.1751,-1.2045,-1.2039,-1.2019,-1.2003,-1.1982,-1.1968,-1.1956,-1.1939,-1.1921,-1.1901,-1.1886,-1.1866,-1.1839,-1.1816,-1.1799,-1.179,-1.1784,-1.1797,-1.1784,-1.1746,-1.1739,-1.1733,-1.1733,-1.1796,-1.1796,-1.1826,-1.1826,-1.1826]},{"header":{"parameterUnit":"m.s-1","parameterCategory":1,"la1":30.2991,"la2":30.254,"lo1":-89.0895,"lo2":-89.0444,"dy":0.0017,"dx":0.0017,"nx":28,"ny":28,"refTime":"2024-04-14T21:00:00:Z","depth":0,"parameterNumber":3,"parameterNumberName":"V-component_of_WINDS"},"data":[0,0,0,0,0,0,0,0,0,0,0,0,0,0,0,0,0,0,0,0,0,0,0,0,0,0,0,0,0,0,0,0,0,0,0,0,0,0,0,0,0,0,0,0,0,0,0,0,0,0,0,0,0,0,0,0,0,0,2.3881,2.388,0,2.3777,2.3775,2.3774,2.3738,2.3739,2.3739,2.3739,2.3628,2.3625,2.3622,0,0,0,0,0,0,0,0,0,0,0,0,0,2.4046,2.4043,2.3881,2.388,2.3878,2.3777,2.3775,2.3774,2.3738,2.3739,2.3739,2.374,2.3629,2.3625,2.3621,0,0,0,0,0,0,0,0,0,0,0,0,0,2.3961,2.4042,2.3881,2.3848,2.3844,2.3777,2.3775,2.3774,2.3738,2.3739,2.3739,2.374,2.3631,2.3626,2.3621,2.3577,0,0,2.3605,2.3603,0,0,0,0,0,0,0,0,2.3966,2.3955,2.3854,2.385,2.3846,2.3771,2.3793,2.3708,2.3738,2.3778,2.3739,2.374,2.3675,2.3666,2.3645,2.3572,2.3567,2.3605,2.3602,2.36,2.3598,0,0,0,0,0,0,0,2.3972,2.3959,2.3839,2.3853,2.3848,2.3838,2.3826,2.3776,2.3724,2.3775,2.3772,2.376,2.3673,2.365,2.3642,2.3566,2.3605,2.3601,2.3598,2.3596,2.3453,2.3452,0,0,0,0,0,0,2.3984,2.3964,2.3843,2.3836,2.3909,2.3834,2.3822,2.3794,2.3725,2.3715,2.376,2.3759,2.3658,2.3648,2.3638,2.3583,2.36,2.3595,2.3592,2.3453,2.3452,2.3451,0,0,0,0,0,0,2.3987,2.3973,2.3847,2.39,2.3883,2.3831,2.3801,2.3792,2.3769,2.3714,2.3704,2.3747,2.3659,2.3645,2.3593,2.3579,2.3593,2.3588,2.3454,2.3453,2.3452,2.3473,0,0,0,0,0,0,2.3992,2.3975,2.3958,2.39,2.388,2.3805,2.38,2.379,2.3761,2.3759,2.3699,2.3689,2.3658,2.3601,2.3588,2.3572,2.3584,2.3455,2.3454,2.3452,2.3473,2.3473,2.3472,0,0,0,0,0,2.3998,2.3967,2.3958,2.3943,2.3859,2.3804,2.3793,2.3759,2.376,2.3743,2.3707,2.3691,2.3583,2.3596,2.3581,2.3564,2.3456,2.3454,2.3452,2.3473,2.3473,2.3472,0,0,0,0,0,0,2.4023,2.3959,2.3947,2.3897,2.3856,2.3798,2.3775,2.3759,2.3716,2.3716,2.3675,2.3661,2.3612,2.3583,2.3598,2.3518,2.3518,2.3514,2.3539,2.3538,2.3538,2.3545,2.358,0,0,0,0,0,2.4024,2.3986,2.3931,2.3891,2.3872,2.3827,2.3802,2.378,2.3736,2.3718,2.3678,2.3635,2.3591,2.3563,2.352,2.3469,2.3455,2.345,2.3449,2.3449,2.3445,2.3417,2.3414,2.3446,2.3446,2.3446,0,0,2.4022,2.3982,2.3961,2.3895,2.3861,2.3822,2.3813,2.3771,2.3742,2.3711,2.366,2.3629,2.3578,2.3527,2.3502,2.3501,2.3433,2.3447,2.3447,2.3443,2.3414,2.3411,2.3409,2.3444,2.3445,2.3445,0,0,2.4001,2.3967,2.3931,2.3897,2.3847,2.3818,2.3809,2.3754,2.3733,2.3681,2.3658,2.3621,2.3547,2.3512,2.3484,2.3451,2.3434,2.3438,2.3435,2.3407,2.3405,2.3402,2.3391,2.3387,2.3435,2.3435,2.3435,0,2.4005,2.3946,2.3913,2.3874,2.3846,2.3819,2.3781,2.375,2.3687,2.3668,2.3668,2.3575,2.3539,2.3479,2.3471,2.345,2.3438,2.3444,2.3408,2.3405,2.3402,2.3391,2.3386,2.3435,2.3435,2.3435,2.3435,0,2.3955,2.3915,2.3891,2.3834,2.3803,2.3765,2.3725,2.3698,2.3679,2.365,2.3598,2.3553,2.3501,2.3485,2.3465,2.3423,2.3424,2.3416,2.3415,2.3401,2.3389,2.3384,2.3437,2.3436,2.3436,2.3436,0,0,2.3944,2.3871,2.3863,2.3837,2.378,2.3748,2.3708,2.3659,2.3636,2.3594,2.356,2.3499,2.3492,2.3461,2.3437,2.3413,2.339,2.3408,2.3406,2.3406,2.3341,2.3347,2.3342,2.3379,2.3378,2.3377,2.3345,0,2.3915,2.3845,2.3815,2.3758,2.3721,2.3695,2.366,2.3622,2.3593,2.3557,2.3525,2.3482,2.3477,2.3458,2.3433,2.3398,2.3376,2.34,2.3346,2.3344,2.3359,2.3336,2.3341,2.3313,2.334,2.334,2.3339,0,2.3871,2.3831,2.3771,2.3721,2.3704,2.3673,2.3626,2.3592,2.3547,2.3528,2.3495,2.3472,2.3429,2.3432,2.3372,2.3389,2.3365,2.3345,2.3343,2.3336,2.334,2.3328,2.3303,2.3299,2.3331,2.3332,2.3333,0,2.387,2.3801,2.3757,2.3735,2.3674,2.3654,2.3627,2.3584,2.3556,2.3515,2.3496,2.345,2.3424,2.3388,2.3354,2.3359,2.3297,2.3297,2.328,2.3281,2.3267,2.3268,2.3238,2.3253,2.3253,2.3253,2.3253,0,2.384,2.3804,2.3755,2.3728,2.3687,2.3653,2.3613,2.3585,2.3546,2.3512,2.3487,2.3455,2.3412,2.3375,2.3347,2.3302,2.329,2.3273,2.3266,2.3275,2.3278,2.3259,2.326,2.3252,2.3252,2.3252,2.3252,0,2.3831,2.3797,2.3747,2.3694,2.368,2.3653,2.3607,2.3579,2.3551,2.3508,2.3496,2.3451,2.3406,2.3369,2.3309,2.329,2.3243,2.3235,2.3259,2.3255,2.324,2.3242,2.3196,2.3188,2.3209,2.3208,2.3208,0,2.3814,2.3786,2.3732,2.3708,2.3683,2.3644,2.3617,2.3582,2.3555,2.3503,2.3481,2.3435,2.3396,2.3325,2.3286,2.324,2.3231,2.3218,2.3223,2.3234,2.323,2.3232,2.3229,2.3217,2.3217,2.3217,2.3217,0,2.3787,2.3772,2.3735,2.3692,2.366,2.3624,2.3587,2.3569,2.3527,2.3497,2.3452,2.3422,2.3362,2.3316,2.3267,2.3238,2.322,2.3216,2.3209,2.3218,2.3233,2.3224,2.3257,2.3217,2.3217,2.3217,2.3217,2.3217,2.3773,2.3748,2.3706,2.3665,2.3635,2.3601,2.3573,2.3542,2.3504,2.3454,2.3435,2.3389,2.3345,2.3278,2.3249,2.3212,2.3209,2.32,2.3198,2.3196,2.3197,2.324,2.3203,2.3203,2.3203,2.3202,2.3202,0,2.3745,2.3718,2.3681,2.3631,2.3599,2.3587,2.3546,2.352,2.348,2.3442,2.3405,2.3353,2.3309,2.3267,2.3221,2.3199,2.3189,2.3188,2.3189,2.3182,2.3202,2.3212,2.3196,2.3196,2.3196,2.3196,2.3196,2.3196,2.3727,2.3684,2.3664,2.3605,2.3578,2.3533,2.3511,2.348,2.3449,2.3393,2.3357,2.3331,2.3292,2.3242,2.3201,2.319,2.3174,2.3174,2.3161,2.318,2.3181,2.3182,2.3191,2.3171,2.3171,2.3145,2.3144,2.3144]}]]